Tracking 18876 objects as of 13-Dec-2017
HD Live streaming from Space Station
objects crossing your sky now

PUCP-SAT 1

Track PUCP-SAT 1 now!
10-day predictions
PUCP-SAT 1 is classified as:


NORAD ID: 39442
Int'l Code: 2013-066AC
Perigee: 581.9 km
Apogee: 625.9 km
Inclination: 97.6 °
Period: 96.6 minutes
Semi major axis: 6974 km
RCS: Unknown
Launch date: November 21, 2013
Source: (TBD)
Launch site: Orenburg, Russia (OREN)
Uplink (MHz): 145.840
Downlink (MHz): 145.840/437.200
Beacon (MHz):
Mode: 1200bps AFSK
Call sign:
Status: Inactive

aabbcc
Your satellite tracking list
Your tracking list is empty




NASA's NSSDC Master Catalog

Two Line Element Set (TLE):
1 39442U 13066AC  17346.75158297  .00000390  00000-0  45341-4 0  9996
2 39442  97.6273  42.1743 0031595 352.6696   7.4056 14.90378478219284
Source of the keplerian elements: AFSPC